Wind_Speed
9 4 4 7 3 3 9 6 5 9 7 5 5 6 9 8 10 12 16 13 12 9 18 18 17 13 7 9 11 9 7 6 6
14 7 2 4 6 3 0 7 7 6 9 10 8 9 10 9 11 13 16 15 14 13 16 15 14 14 14 13 14 12 10 9 7
14 9 6 3 2 4 4 1 3 7 9 10 10 11 11 10 11 13 16 14 16 15 14 14 16 17 15 16 16 13 11 12 11
10 12 10 8 4 1 4 5 3 6 8 9 13 14 13 10 11 14 16 15 15 18 18 18 16 14 16 17 17 15 12 13 14
24 14 13 10 8 9 4 8 7 10 10 12 15 15 16 14 13 13 15 15 16 15 16 16 17 17 17 16 16 14 14 15 15
17 18 13 10 8 16 16 13 13 13 13 14 14 16 17 16 16 17 16 13 15 17 16 19 20 19 18 18 17 16 16 16 16
19 19 22 18 18 20 17 19 15 16 16 14 15 15 17 16 17 18 20 15 15 16 15 15 18 20 20 18 19 18 18 18 17
29 29 29 23 19 25 14 14 19 19 17 16 16 16 18 18 17 16 18 20 19 16 17 18 18 19 21 22 21 20 20 20 19
31 31 34 37 27 21 19 14 20 23 19 17 18 18 20 22 20 19 18 20 23 23 23 22 19 18 19 21 23 23 22 21 20
31 33 33 34 44 32 26 21 23 25 22 19 19 20 21 20 20 19 17 19 20 25 25 24 24 20 21 21 21 22 23 22 21
42 40 41 39 42 34 27 26 25 27 24 20 20 20 20 20 21 20 18 18 21 21 22 26 26 22 21 21 21 21 21 22 23
48 48 49 50 38 32 28 35 39 30 29 26 21 18 18 18 19 19 19 19 20 19 17 21 25 25 24 23 24 24 25 24 25
52 49 48 48 41 40 36 36 31 31 33 28 26 21 19 19 18 18 20 19 17 18 19 22 24 25 26 26 26 27 24 24 25
41 43 44 54 49 42 39 28 32 36 36 34 31 28 25 23 20 17 16 16 19 18 18 18 19 18 18 19 20 23 23 20 19
49 52 53 50 45 44 43 43 36 48 44 46 36 34 28 28 27 24 19 16 15 17 17 18 18 17 17 16 15 15 16 17 16
45 34 45 49 55 52 48 46 48 49 50 48 39 36 28 28 27 26 25 21 17 17 16 16 15 17 18 17 17 18 19 19 20
47 48 44 44 42 46 56 54 52 48 38 44 42 33 33 30 31 29 26 23 21 21 19 18 19 19 19 20 22 24 25 27 28
48 41 51 37 39 35 39 35 46 43 36 42 41 36 36 31 33 30 28 25 24 23 23 23 24 24 24 25 25 27 29 30 32
39 42 43 43 39 44 41 40 44 39 34 44 40 43 35 34 33 31 28 27 26 26 25 25 26 27 28 27 29 29 29 30 31
41 46 46 45 28 26 28 34 31 26 34 49 45 48 39 41 35 32 30 29 27 27 27 26 26 26 28 27 27 28 26 23 25
Wind_Direction
6 16 31 89 74 286 261 246 203 210 245 250 239 246 234 197 192 201 192 207 195 194 189 191 199 204 200 217 214 206 179 195 213
342 325 2 60 26 26 332 242 246 214 237 241 242 239 237 213 199 194 194 182 191 202 194 188 200 210 206 222 216 205 191 195 221
334 323 257 165 65 6 0 358 250 212 226 233 245 243 240 222 218 219 195 190 200 201 203 206 207 218 210 221 217 211 200 200 215
312 323 329 275 226 241 333 338 262 232 230 231 242 247 236 238 225 225 225 203 206 209 202 206 211 224 209 213 213 218 212 210 213
320 321 331 340 310 280 264 291 267 250 235 231 240 237 242 250 237 231 231 217 214 209 219 215 219 221 213 226 223 218 222 228 224
294 301 304 327 308 296 306 265 269 241 246 219 226 235 244 249 241 240 239 231 226 220 219 222 218 220 215 222 234 242 240 230 236
284 294 301 315 292 298 296 273 259 258 248 220 210 224 232 239 244 244 244 233 228 225 219 224 226 226 228 227 228 230 239 241 237
287 295 293 283 320 330 283 252 244 252 247 239 212 210 219 227 235 241 246 245 233 226 221 222 223 223 225 231 233 234 237 243 243
281 285 298 291 293 300 308 269 256 240 229 228 224 218 213 215 222 228 234 233 228 230 236 232 229 222 228 232 234 237 238 241 244
265 270 261 271 286 293 287 270 256 246 227 225 234 231 224 220 220 223 228 231 236 245 244 235 228 226 225 232 236 238 242 247 251
253 258 266 271 278 285 279 276 262 257 240 218 220 234 237 231 226 227 225 224 230 241 249 235 219 220 222 228 235 242 243 244 248
253 255 263 267 269 269 264 269 277 252 242 227 208 209 226 229 227 226 225 223 226 226 234 228 221 224 229 232 240 245 247 250 252
256 257 257 261 261 266 266 259 244 248 240 231 220 209 219 222 221 218 222 222 222 220 218 223 229 241 244 246 248 246 249 255 256
253 253 256 252 256 257 266 248 264 233 245 224 222 211 218 225 225 221 215 221 221 218 216 218 225 231 238 237 242 249 248 252 253
260 255 258 258 252 250 251 256 254 248 266 252 216 219 208 227 226 230 222 216 221 223 224 221 219 221 228 234 238 241 238 240 246
261 266 261 259 257 253 248 246 250 256 267 242 206 211 204 220 226 230 231 225 229 227 225 230 232 235 239 242 246 251 256 259 259
264 263 261 251 276 266 248 247 257 267 250 257 206 206 208 215 226 228 229 231 233 235 237 237 239 245 255 259 261 264 268 269 268
258 254 255 250 261 257 258 272 262 261 265 241 226 204 210 213 224 225 227 227 231 234 238 241 245 249 252 257 263 266 267 269 270
254 255 268 260 264 253 264 261 270 265 232 199 201 205 202 214 217 221 223 224 229 231 234 238 242 248 251 256 263 267 267 270 271
246 252 259 258 255 246 258 253 265 268 210 203 200 204 202 212 211 218 222 227 229 231 233 235 242 249 253 252 260 266 268 270 271
Height
5882 5881 5881 5878 5877 5878 5878 5879 5878 5879 5880 5881 5883 5884 5884 5885 5885 5885 5885 5888 5891 5893 5897 5901 5904 5907 5910 5912 5915 5915 5916 5919 5921
5881 5879 5879 5878 5877 5876 5875 5875 5875 5876 5878 5881 5883 5883 5883 5884 5885 5885 5885 5886 5890 5893 5898 5900 5903 5906 5908 5911 5912 5912 5914 5916 5919
5881 5878 5877 5874 5874 5875 5874 5872 5871 5873 5875 5878 5880 5882 5882 5883 5882 5883 5885 5887 5889 5891 5895 5898 5901 5903 5905 5908 5911 5910 5912 5913 5916
5878 5876 5876 5874 5872 5872 5872 5872 5871 5871 5871 5873 5876 5879 5881 5882 5882 5883 5883 5884 5887 5890 5892 5895 5898 5901 5902 5904 5907 5909 5910 5912 5914
5869 5873 5873 5872 5873 5874 5871 5870 5871 5868 5868 5869 5872 5875 5877 5878 5879 5880 5882 5882 5884 5886 5889 5891 5895 5898 5900 5902 5904 5906 5907 5910 5911
5865 5864 5868 5870 5870 5873 5873 5869 5868 5867 5866 5866 5867 5870 5872 5874 5875 5876 5878 5879 5881 5884 5886 5889 5892 5895 5898 5900 5901 5901 5903 5906 5906
5861 5861 5861 5864 5865 5867 5865 5867 5866 5866 5866 5863 5863 5864 5867 5870 5871 5872 5874 5877 5878 5880 5882 5885 5888 5890 5892 5895 5897 5899 5900 5902 5904
5852 5853 5857 5858 5860 5860 5856 5859 5862 5862 5861 5862 5859 5859 5862 5865 5867 5869 5870 5872 5875 5876 5879 5881 5884 5886 5889 5891 5892 5894 5896 5898 5899
5850 5850 5850 5850 5855 5856 5855 5856 5859 5858 5856 5856 5856 5856 5857 5857 5860 5864 5866 5867 5869 5872 5873 5875 5878 5881 5884 5886 5887 5888 5891 5893 5893
5845 5846 5842 5841 5842 5850 5852 5852 5854 5854 5851 5851 5855 5854 5854 5853 5854 5855 5859 5862 5864 5865 5867 5869 5871 5874 5876 5878 5881 5883 5884 5887 5889
5836 5838 5836 5838 5838 5843 5846 5847 5849 5850 5850 5849 5851 5852 5854 5854 5853 5853 5853 5855 5858 5859 5859 5860 5864 5867 5869 5871 5873 5875 5877 5879 5881
5826 5828 5829 5829 5832 5835 5838 5840 5842 5844 5846 5845 5844 5847 5850 5851 5850 5849 5850 5851 5852 5853 5854 5857 5860 5861 5863 5865 5868 5869 5870 5872 5874
5812 5815 5818 5820 5823 5826 5829 5832 5831 5836 5841 5840 5841 5840 5844 5846 5846 5844 5845 5846 5847 5849 5851 5853 5856 5858 5859 5859 5861 5863 5865 5866 5867
5799 5801 5801 5804 5811 5818 5818 5818 5819 5824 5829 5833 5831 5828 5834 5839 5841 5842 5840 5841 5844 5844 5846 5849 5851 5853 5855 5855 5855 5857 5859 5860 5860
5782 5787 5788 5791 5795 5800 5804 5807 5808 5810 5816 5820 5821 5819 5820 5830 5833 5836 5835 5835 5838 5840 5843 5844 5846 5848 5850 5851 5853 5854 5854 5855 5855
5764 5770 5775 5778 5781 5782 5783 5785 5791 5796 5802 5798 5802 5805 5811 5822 5825 5828 5831 5830 5833 5835 5837 5840 5842 5844 5845 5847 5848 5849 5850 5850 5850
5756 5759 5763 5767 5767 5770 5772 5769 5780 5785 5786 5786 5782 5792 5803 5811 5818 5821 5825 5826 5827 5830 5832 5833 5836 5838 5840 5842 5843 5844 5844 5844 5844
5741 5747 5749 5754 5759 5761 5764 5762 5763 5764 5769 5776 5760 5780 5795 5802 5810 5814 5817 5818 5820 5822 5825 5827 5829 5832 5833 5834 5835 5836 5836 5836 5836
5725 5732 5735 5743 5745 5750 5755 5756 5746 5750 5757 5765 5757 5777 5784 5794 5800 5804 5807 5810 5812 5815 5817 5819 5821 5823 5824 5826 5827 5827 5827 5826 5827
5715 5719 5722 5732 5736 5740 5743 5744 5742 5743 5742 5743 5756 5767 5770 5783 5787 5795 5798 5802 5803 5806 5808 5810 5812 5815 5816 5816 5818 5819 5819 5819 5818